period_start,C,m1,H,J0,J1,J2,J3,J4,J5,JA,JB,JC,JD,JJ,JK,JN,#
2014-10-09 00:04:01,0.08,1.33,0.00,23.29,27.28,30.00,4.88,23.73,1028.25,2035.99,2911.17,2956.39,3184.95,350.18,351.48,14.82,0000 0000 0000 0000 000000
2014-10-09 00:09:03,0.06,1.33,0.00,23.32,27.29,30.00,4.81,23.85,1027.99,2035.99,2910.36,2956.00,3184.20,350.13,351.16,14.85,0000 0000 0000 0000 000000
2014-10-09 00:14:04,0.08,1.33,0.00,23.33,27.29,30.01,4.83,23.88,1027.89,2035.99,2909.53,2955.37,3183.75,349.97,351.20,14.88,0000 0000 0000 0000 000000
2014-10-09 00:19:05,0.03,1.33,0.00,23.34,27.29,29.98,4.86,23.78,1027.87,2035.99,2908.85,2954.99,3183.05,350.17,351.42,14.91,0000 0000 0000 0000 000000
2014-10-09 00:24:07,0.08,1.33,0.00,23.32,27.30,30.00,4.85,23.78,1027.99,2035.99,2908.01,2954.47,3182.50,349.87,351.19,14.94,0000 0000 0000 0000 000000
2014-10-09 00:29:08,0.05,1.34,0.00,23.28,27.30,29.99,4.81,23.79,1028.01,2035.99,2907.22,2954.01,3181.95,349.89,351.09,14.97,0000 0000 0000 0000 000000
2014-10-09 00:34:09,0.09,1.34,0.00,23.29,27.30,30.00,4.71,23.65,1027.95,2035.99,2906.58,2953.49,3181.26,349.83,351.05,15.00,0000 0000 0000 0000 000000
2014-10-09 00:39:11,0.05,1.34,0.00,23.33,27.30,30.00,4.77,23.88,1027.96,2035.99,2905.70,2953.00,3180.74,350.34,351.44,15.03,0000 0000 0000 0000 000000
2014-10-09 00:44:12,0.07,1.34,0.00,23.33,27.30,30.03,4.87,23.77,1028.02,2035.99,2905.01,2952.51,3180.03,350.15,351.23,15.06,0000 0000 0000 0000 000000
2014-10-09 00:49:13,0.04,1.34,0.00,23.35,27.30,30.00,4.85,23.84,1027.93,2035.99,2904.31,2952.01,3179.76,349.53,350.53,15.09,0000 0000 0000 0000 000000
2014-10-09 00:54:14,0.06,1.35,0.00,23.30,27.30,30.01,4.75,23.74,1027.95,2035.99,2903.59,2951.72,3179.04,350.10,351.30,15.11,0000 0000 0000 0000 000000
2014-10-09 00:59:15,0.07,1.35,0.00,23.32,27.30,30.00,4.84,23.65,1027.87,2035.99,2902.76,2951.03,3178.38,350.17,351.14,15.14,0000 0000 0000 0000 000000
2014-10-09 01:04:17,0.02,1.35,0.00,23.33,27.30,30.01,4.76,23.66,1027.86,2035.99,2902.04,2950.92,3177.99,349.81,351.00,15.17,0000 0000 0000 0000 000000
2014-10-09 01:09:18,0.09,1.35,0.00,23.31,27.30,30.03,4.78,23.65,1027.85,2035.99,2901.46,2950.16,3177.38,350.03,350.77,15.20,0000 0000 0000 0000 000000
2014-10-09 01:14:19,0.02,1.35,0.00,23.30,27.30,30.03,4.80,23.71,1027.85,2035.99,2900.75,2949.97,3176.97,349.81,350.87,15.23,0000 0000 0000 0000 000000
2014-10-09 01:19:20,0.09,1.36,0.00,23.26,27.30,30.05,4.82,23.70,1027.85,2036.00,2900.04,2949.25,3176.22,349.96,351.22,15.26,0000 0000 0000 0000 000000
2014-10-09 01:24:21,0.04,1.36,0.00,23.33,27.30,30.04,4.93,23.80,1027.86,2036.00,2899.25,2948.97,3175.83,350.38,351.38,15.29,0000 0000 0000 0000 000000
2014-10-09 01:29:23,0.09,1.36,0.00,23.30,27.30,30.03,4.85,23.78,1027.87,2036.00,2898.56,2948.20,3175.05,349.90,351.02,15.32,0000 0000 0000 0000 000000
2014-10-09 01:34:24,0.04,1.36,0.00,23.32,27.31,29.99,4.85,23.70,1027.87,2036.00,2897.91,2947.97,3174.58,350.19,351.38,15.35,0000 0000 0000 0000 000000
2014-10-09 01:39:25,0.08,1.36,0.00,23.35,27.32,29.96,4.80,23.74,1027.86,2036.00,2897.07,2947.17,3173.97,349.63,350.62,15.38,0000 0000 0000 0000 000000
2014-10-09 01:44:27,0.06,1.36,0.00,23.34,27.32,29.94,4.80,23.70,1027.85,2035.99,2896.21,2946.94,3173.15,349.72,350.67,15.41,0000 0000 0000 0000 000000
2014-10-09 01:49:28,0.08,1.37,0.00,23.34,27.32,29.98,4.75,23.68,1027.85,2035.99,2895.55,2946.17,3172.76,349.66,350.37,15.44,0000 0000 0000 0000 000000
2014-10-09 01:54:29,0.02,1.37,0.00,23.35,27.32,29.98,4.80,23.69,1027.85,2035.99,2894.96,2945.99,3172.05,350.37,351.40,15.47,0000 0000 0000 0000 000000
2014-10-09 01:59:30,0.08,1.37,0.00,23.36,27.33,30.00,4.84,23.61,1027.85,2035.99,2894.13,2945.52,3171.75,350.53,351.67,15.50,0000 0000 0000 0000 000000
2014-10-09 02:04:31,0.04,1.37,0.00,23.36,27.34,30.01,4.92,23.77,1027.85,2035.99,2893.70,2945.01,3171.04,350.80,351.93,15.52,0000 0000 0000 0000 000000
2014-10-09 02:09:32,0.05,1.37,0.00,23.39,27.35,29.97,4.85,23.72,1027.85,2035.99,2893.01,2944.73,3170.68,350.57,351.57,15.55,0000 0000 0000 0000 000000
2014-10-09 02:14:34,0.06,1.38,0.00,23.35,27.35,30.05,4.83,23.73,1027.85,2035.99,2892.38,2944.06,3170.03,349.78,350.92,15.58,0000 0000 0000 0000 000000
2014-10-09 02:19:35,0.03,1.38,0.00,23.34,27.35,30.08,4.81,23.66,1027.85,2035.99,2891.83,2943.96,3169.53,349.95,351.13,15.61,0000 0000 0000 0000 000000
2014-10-09 02:24:37,0.06,1.38,0.00,23.34,27.35,30.09,4.83,23.73,1027.85,2035.99,2891.06,2943.39,3169.02,350.08,351.46,15.64,0000 0000 0000 0000 000000
2014-10-09 02:29:38,0.04,1.38,0.00,23.34,27.35,30.11,4.80,23.65,1027.85,2035.99,2890.64,2943.01,3168.69,350.03,351.43,15.67,0000 0000 0000 0000 000000
2014-10-09 02:34:39,0.04,1.38,0.00,23.34,27.36,30.10,4.81,23.63,1027.85,2035.98,2890.00,2942.73,3168.04,350.00,351.04,15.70,0000 0000 0000 0000 000000
2014-10-09 02:39:40,0.06,1.38,0.00,23.36,27.36,30.09,4.78,23.82,1027.84,2035.99,2889.24,2942.03,3167.85,349.62,350.81,15.73,0000 0000 0000 0000 000000
2014-10-09 02:44:41,0.02,1.38,0.00,23.35,27.36,30.10,4.77,23.77,1027.78,2035.98,2889.00,2941.98,3167.12,349.85,350.79,15.76,0000 0000 0000 0000 000000
2014-10-09 02:49:43,0.07,1.39,0.00,23.35,27.36,30.09,4.74,23.77,1027.77,2035.98,2888.29,2941.42,3166.91,349.40,350.49,15.79,0000 0000 0000 0000 000000
2014-10-09 02:54:44,0.04,1.39,0.00,23.32,27.36,30.08,4.82,23.81,1027.77,2035.98,2887.81,2941.01,3166.13,350.50,351.55,15.82,0000 0000 0000 0000 000000
2014-10-09 02:59:45,0.03,1.39,0.00,23.34,27.36,30.09,4.76,23.82,1027.73,2035.99,2887.05,2940.80,3165.91,350.08,351.17,15.85,0000 0000 0000 0000 000000
2014-10-09 03:04:47,0.08,1.39,0.00,23.32,27.35,30.08,4.88,23.76,1027.61,2035.98,2886.60,2940.09,3165.15,350.38,351.41,15.88,0000 0000 0000 0000 000000
2014-10-09 03:09:48,0.01,1.39,0.00,23.33,27.35,30.07,4.73,23.71,1027.58,2035.98,2886.01,2939.97,3164.95,349.91,351.04,15.91,0000 0000 0000 0000 000000
2014-10-09 03:14:49,0.08,1.39,0.00,23.34,27.35,30.07,4.83,23.72,1027.48,2035.99,2885.55,2939.54,3164.37,349.74,350.71,15.93,0000 0000 0000 0000 000000
2014-10-09 03:19:51,0.03,1.40,0.00,23.35,27.35,30.09,4.71,23.79,1027.40,2035.98,2885.02,2939.03,3164.01,349.55,350.66,15.96,0000 0000 0000 0000 000000
2014-10-09 03:24:52,0.03,1.40,0.00,23.36,27.35,30.08,4.83,23.88,1027.37,2035.99,2884.63,2938.95,3163.73,350.03,350.94,15.99,0000 0000 0000 0000 000000
2014-10-09 03:29:53,0.07,1.40,0.00,23.35,27.35,30.08,4.88,24.01,1027.36,2035.97,2884.03,2938.27,3163.05,350.18,350.95,16.02,0000 0000 0000 0000 000000
2014-10-09 03:34:54,0.01,1.40,0.00,23.37,27.35,30.07,4.82,23.93,1027.36,2035.96,2883.77,2938.01,3162.99,349.89,350.80,16.05,0000 0000 0000 0000 000000
2014-10-09 03:39:56,0.05,1.40,0.00,23.35,27.35,30.06,4.78,24.02,1027.37,2035.97,2883.06,2937.91,3162.35,350.23,351.32,16.08,0000 0000 0000 0000 000000
2014-10-09 03:44:57,0.04,1.40,0.00,23.35,27.35,30.06,4.85,24.03,1027.38,2035.97,2882.99,2937.31,3162.00,350.24,351.19,16.11,0000 0000 0000 0000 000000
2014-10-09 03:49:58,0.03,1.40,0.00,23.35,27.35,30.05,4.83,23.89,1027.38,2035.98,2882.45,2937.02,3161.95,349.79,350.64,16.14,0000 0000 0000 0000 000000
2014-10-09 03:54:59,0.02,1.40,0.00,23.35,27.35,30.07,4.82,23.99,1027.38,2035.97,2881.96,2936.95,3161.34,350.09,351.08,16.17,0000 0000 0000 0000 000000
2014-10-09 04:00:01,0.07,1.41,0.00,23.38,27.35,30.05,4.81,23.80,1027.37,2035.96,2881.39,2936.27,3161.00,350.17,351.02,16.20,0000 0000 0000 0000 000000
2014-10-09 04:05:02,0.02,1.41,0.00,23.37,27.34,30.06,4.83,23.87,1027.37,2035.98,2880.97,2936.02,3160.80,350.30,351.30,16.23,0000 0000 0000 0000 000000
2014-10-09 04:10:03,0.04,1.41,0.00,23.37,27.33,30.04,4.70,23.82,1027.38,2035.98,2880.43,2935.97,3160.10,349.13,350.33,16.26,0000 0000 0000 0000 000000
2014-10-09 04:15:04,0.04,1.41,0.00,23.38,27.32,30.05,4.77,23.92,1027.37,2035.97,2880.02,2935.34,3159.99,349.76,350.67,16.29,0000 0000 0000 0000 000000
2014-10-09 04:20:05,0.03,1.41,0.00,23.37,27.32,30.03,4.87,23.80,1027.37,2035.99,2879.79,2935.02,3159.72,350.81,351.74,16.32,0000 0000 0000 0000 000000
2014-10-09 04:25:07,0.04,1.41,0.00,23.39,27.32,30.05,4.80,23.97,1027.36,2035.98,2879.08,2934.88,3159.04,349.64,350.79,16.34,0000 0000 0000 0000 000000
2014-10-09 04:30:08,0.03,1.41,0.00,23.36,27.32,30.04,4.82,23.82,1027.36,2035.98,2879.00,2934.29,3158.99,350.04,351.02,16.37,0000 0000 0000 0000 000000
2014-10-09 04:35:09,0.03,1.41,0.00,23.38,27.32,30.03,4.86,23.89,1027.36,2035.98,2878.65,2934.02,3158.60,349.80,350.68,16.40,0000 0000 0000 0000 000000
2014-10-09 04:40:10,0.03,1.41,0.00,23.37,27.32,30.06,4.78,23.94,1027.36,2035.94,2878.04,2933.94,3158.02,349.68,350.44,16.43,0000 0000 0000 0000 000000
2014-10-09 04:45:12,0.03,1.42,0.00,23.36,27.32,30.05,4.88,23.88,1027.36,2035.96,2877.87,2933.50,3157.97,350.12,351.02,16.46,0000 0000 0000 0000 000000
2014-10-09 04:50:13,0.06,1.42,0.00,23.36,27.32,30.04,4.74,23.73,1027.36,2035.96,2877.13,2933.02,3157.31,350.12,351.23,16.49,0000 0000 0000 0000 000000
2014-10-09 04:55:14,0.01,1.42,0.00,23.36,27.32,30.04,4.82,23.86,1027.36,2035.97,2876.99,2932.99,3157.03,349.55,350.58,16.52,0000 0000 0000 0000 000000
2014-10-09 05:00:15,0.03,1.42,0.00,23.36,27.32,30.03,4.80,23.86,1027.36,2035.94,2876.58,2932.77,3156.99,349.81,350.60,16.55,0000 0000 0000 0000 000000
2014-10-09 05:05:17,0.05,1.42,0.00,23.36,27.32,30.03,4.81,23.95,1027.36,2035.94,2876.07,2932.10,3156.72,349.74,350.70,16.58,0000 0000 0000 0000 000000
2014-10-09 05:10:18,0.02,1.42,0.00,23.35,27.31,30.02,4.77,23.84,1027.36,2035.91,2875.96,2932.00,3156.04,349.75,350.66,16.61,0000 0000 0000 0000 000000
2014-10-09 05:15:19,0.02,1.42,0.00,23.32,27.30,30.02,4.78,23.76,1027.36,2035.92,2875.40,2931.97,3155.99,350.28,351.30,16.64,0000 0000 0000 0000 000000
2014-10-09 05:20:20,0.04,1.42,0.00,23.35,27.30,30.03,4.82,23.76,1027.36,2035.91,2875.02,2931.56,3155.85,350.12,351.29,16.67,0000 0000 0000 0000 000000
2014-10-09 05:25:21,0.04,1.42,0.00,23.37,27.30,30.01,4.80,23.78,1027.37,2035.96,2874.95,2931.11,3155.36,349.78,350.76,16.70,0000 0000 0000 0000 000000
2014-10-09 05:30:22,0.03,1.43,0.00,23.36,27.30,30.01,4.76,23.58,1027.36,2035.95,2874.26,2931.00,3155.01,350.08,350.67,16.73,0000 0000 0000 0000 000000
2014-10-09 05:35:24,0.02,1.43,0.00,23.37,27.30,30.01,4.80,23.82,1027.37,2035.96,2873.89,2930.95,3154.81,350.33,351.32,16.75,0000 0000 0000 0000 000000
2014-10-09 05:40:25,0.05,1.43,0.00,23.37,27.30,30.01,4.82,23.82,1027.38,2035.92,2873.41,2930.39,3154.18,350.10,350.95,16.78,0000 0000 0000 0000 000000
2014-10-09 05:45:26,0.03,1.43,0.00,23.35,27.30,30.01,4.83,23.77,1027.38,2035.86,2873.11,2930.02,3154.01,349.83,350.77,16.81,0000 0000 0000 0000 000000
2014-10-09 05:50:27,0.00,1.43,0.00,23.34,27.30,30.02,4.78,23.73,1027.37,2035.90,2872.94,2930.00,3153.98,349.89,350.91,16.84,0000 0000 0000 0000 000000
2014-10-09 05:55:29,0.02,1.43,0.00,23.31,27.30,30.01,4.83,23.74,1027.36,2035.93,2872.82,2929.98,3153.91,349.80,350.79,16.87,0000 0000 0000 0000 000000
2014-10-09 06:00:30,0.05,1.43,0.00,23.34,27.30,30.01,4.83,23.73,1027.34,2035.91,2872.25,2929.76,3153.31,349.94,350.88,16.90,0000 0000 0000 0000 000000
2014-10-09 06:05:31,0.03,1.43,0.00,23.34,27.30,29.99,4.81,23.82,1027.14,2035.93,2872.01,2929.13,3153.01,350.08,351.05,16.93,0000 0000 0000 0000 000000
2014-10-09 06:10:32,0.00,1.43,0.00,23.31,27.29,30.00,4.85,23.85,1027.09,2035.92,2871.92,2929.00,3153.00,350.52,351.43,16.96,0000 0000 0000 0000 000000
2014-10-09 06:15:33,0.05,1.43,0.00,23.32,27.29,29.99,4.82,23.88,1027.21,2035.92,2871.19,2928.98,3152.60,350.28,350.68,16.99,0000 0000 0000 0000 000000
2014-10-09 06:20:34,0.03,1.43,0.00,23.34,27.29,29.99,4.86,23.95,1027.24,2035.89,2870.97,2928.65,3152.04,350.50,351.33,17.02,0000 0000 0000 0000 000000
2014-10-09 06:25:36,0.01,1.44,0.00,23.35,27.29,29.98,4.87,23.95,1027.22,2035.83,2870.72,2928.05,3152.00,349.95,351.01,17.05,0000 0000 0000 0000 000000
2014-10-09 06:30:37,0.03,1.44,0.00,23.33,27.29,29.98,4.75,23.82,1026.97,2035.89,2870.09,2928.00,3151.95,349.80,350.40,17.08,0000 0000 0000 0000 000000
2014-10-09 06:35:38,0.02,1.44,0.00,23.32,27.28,29.99,4.82,23.96,1026.89,2035.86,2869.99,2927.99,3151.31,349.30,350.06,17.11,0000 0000 0000 0000 000000
2014-10-09 06:40:39,0.00,1.44,0.00,23.30,27.28,30.00,4.83,24.07,1026.90,2035.67,2869.65,2927.80,3151.01,350.36,351.17,17.14,0000 0000 0000 0000 000000
2014-10-09 06:45:41,0.07,1.44,0.00,23.32,27.27,29.97,4.86,23.92,1026.99,2035.75,2869.09,2927.18,3151.00,350.05,350.91,17.16,0000 0000 0000 0000 000000
2014-10-09 06:50:42,0.02,1.44,0.00,23.34,27.27,29.99,4.88,23.89,1027.26,2035.89,2869.00,2927.06,3150.98,350.17,351.26,17.19,0000 0000 0000 0000 000000
2014-10-09 06:55:43,0.00,1.44,0.00,23.34,27.27,29.99,4.86,23.72,1027.21,2035.87,2868.96,2926.99,3150.64,350.02,350.99,17.22,0000 0000 0000 0000 000000
2014-10-09 07:00:45,0.04,1.44,0.00,23.34,27.27,29.99,4.73,23.63,1027.24,2035.84,2868.33,2926.97,3150.06,350.00,351.07,17.25,0000 0000 0000 0000 000000
2014-10-09 07:05:46,0.03,1.44,0.00,23.33,27.27,29.97,4.79,23.67,1027.29,2035.80,2868.00,2926.57,3150.00,349.95,350.88,17.28,0000 0000 0000 0000 000000
2014-10-09 07:10:48,-0.01,1.44,0.00,23.34,27.27,29.99,4.81,23.85,1027.13,2035.70,2867.95,2926.04,3149.94,349.81,350.76,17.31,0000 0000 0000 0000 000000
2014-10-09 07:15:49,0.07,1.44,0.00,23.32,27.27,29.98,4.77,23.68,1027.01,2035.79,2867.24,2926.00,3149.38,350.07,351.06,17.34,0000 0000 0000 0000 000000
2014-10-09 07:20:50,0.00,1.44,0.00,23.27,27.27,29.96,4.81,23.68,1027.25,2035.70,2867.01,2925.99,3149.03,350.14,351.07,17.37,0000 0000 0000 0000 000000
2014-10-09 07:25:51,-0.01,1.44,0.00,23.25,27.27,29.94,4.83,23.73,1027.30,2035.66,2866.97,2925.81,3148.99,349.95,350.99,17.40,0000 0000 0000 0000 000000
2014-10-09 07:30:53,0.06,1.44,0.00,23.26,27.27,29.95,4.82,23.66,1027.25,2035.65,2866.74,2925.32,3148.97,350.20,351.21,17.43,0000 0000 0000 0000 000000
2014-10-09 07:35:54,0.02,1.45,0.00,23.30,27.26,29.95,4.86,23.92,1027.29,2035.58,2866.09,2925.02,3148.66,349.93,351.10,17.46,0000 0000 0000 0000 000000
2014-10-09 07:40:55,-0.00,1.45,0.00,23.33,27.25,29.95,4.74,23.77,1027.29,2035.37,2865.99,2925.00,3148.05,349.69,350.64,17.49,0000 0000 0000 0000 000000
2014-10-09 07:45:56,-0.00,1.45,0.00,23.29,27.25,29.95,4.79,23.82,1027.15,2035.44,2865.92,2924.97,3148.00,349.66,350.71,17.52,0000 0000 0000 0000 000000
2014-10-09 07:50:57,0.04,1.45,0.00,23.26,27.25,29.97,4.79,23.79,1027.07,2035.61,2865.52,2924.89,3148.00,349.67,350.62,17.55,0000 0000 0000 0000 000000
2014-10-09 07:55:58,0.06,1.45,0.00,23.29,27.25,29.97,4.79,23.79,1027.05,2035.62,2865.04,2924.30,3147.92,349.74,350.69,17.57,0000 0000 0000 0000 000000
2014-10-09 08:01:00,0.04,1.45,0.00,23.29,27.25,29.96,4.86,23.82,1026.91,2035.77,2865.00,2924.06,3147.46,350.53,351.44,17.60,0000 0000 0000 0000 000000
2014-10-09 08:06:01,0.03,1.45,0.00,23.30,27.25,29.96,4.84,23.68,1026.91,2035.79,2864.93,2924.00,3147.03,350.33,351.16,17.63,0000 0000 0000 0000 000000
2014-10-09 08:11:02,0.02,1.45,0.00,23.30,27.25,29.97,4.84,23.88,1027.15,2035.85,2864.24,2924.00,3147.00,350.27,351.07,17.66,0000 0000 0000 0000 000000
2014-10-09 08:16:03,0.00,1.45,0.00,23.26,27.25,29.97,4.86,23.88,1027.24,2035.75,2864.00,2923.78,3146.91,349.93,351.08,17.69,0000 0000 0000 0000 000000
2014-10-09 08:21:04,0.06,1.45,0.00,23.25,27.25,29.97,4.79,23.91,1027.19,2035.76,2863.95,2923.23,3146.50,349.74,350.83,17.72,0000 0000 0000 0000 000000
2014-10-09 08:26:06,0.05,1.46,0.00,23.27,27.25,29.97,4.82,23.85,1027.34,2035.83,2863.28,2923.01,3146.03,350.21,350.95,17.75,0000 0000 0000 0000 000000
2014-10-09 08:31:07,-0.00,1.46,0.00,23.26,27.25,29.96,4.79,23.85,1027.36,2035.80,2863.00,2923.00,3146.00,349.89,351.08,17.78,0000 0000 0000 0000 000000
2014-10-09 08:36:08,0.01,1.46,0.00,23.26,27.25,29.95,4.81,23.78,1027.35,2035.69,2862.62,2922.81,3145.70,349.59,350.59,17.81,0000 0000 0000 0000 000000
2014-10-09 08:41:09,0.06,1.46,0.00,23.27,27.25,29.97,4.82,23.92,1027.28,2035.48,2862.01,2922.10,3145.03,349.79,350.82,17.84,0000 0000 0000 0000 000000
2014-10-09 08:46:11,0.01,1.46,0.00,23.23,27.25,29.96,4.76,23.73,1027.32,2035.56,2861.98,2922.02,3145.00,349.21,350.38,17.87,0000 0000 0000 0000 000000
2014-10-09 08:51:12,0.04,1.46,0.00,23.27,27.24,29.97,4.78,23.74,1027.36,2035.74,2861.48,2921.99,3144.97,349.73,350.84,17.90,0000 0000 0000 0000 000000
2014-10-09 08:56:13,0.05,1.46,0.00,23.27,27.24,29.96,4.83,23.75,1027.36,2035.86,2861.02,2921.96,3144.58,349.41,350.32,17.93,0000 0000 0000 0000 000000
2014-10-09 09:01:15,0.03,1.46,0.00,23.24,27.24,29.96,4.83,23.63,1027.29,2035.71,2860.84,2921.32,3144.03,350.44,351.40,17.96,0000 0000 0000 0000 000000
2014-10-09 09:06:16,0.00,1.46,0.00,23.22,27.24,29.95,4.83,23.82,1027.05,2035.51,2860.09,2921.01,3143.95,350.31,351.37,17.98,0000 0000 0000 0000 000000
2014-10-09 09:11:17,0.03,1.46,0.00,23.23,27.23,29.95,4.76,23.63,1027.23,2035.54,2859.98,2921.00,3143.47,350.23,351.46,18.01,0000 0000 0000 0000 000000
2014-10-09 09:16:18,0.08,1.46,0.00,23.26,27.23,29.94,4.78,23.68,1027.27,2035.72,2859.32,2920.82,3143.02,350.14,351.56,18.04,0000 0000 0000 0000 000000
2014-10-09 09:21:19,0.04,1.47,0.00,23.25,27.23,29.95,4.77,23.76,1026.98,2035.77,2859.00,2920.12,3142.99,350.11,351.25,18.07,0000 0000 0000 0000 000000
2014-10-09 09:26:20,0.03,1.47,0.00,23.24,27.23,29.96,4.78,23.61,1026.89,2035.74,2858.66,2920.01,3142.55,349.92,350.80,18.10,0000 0000 0000 0000 000000
2014-10-09 09:31:21,0.01,1.47,0.00,23.24,27.22,29.95,4.86,23.68,1026.93,2035.67,2858.03,2919.95,3142.02,350.09,350.94,18.13,0000 0000 0000 0000 000000
2014-10-09 09:36:23,0.06,1.47,0.00,23.24,27.22,29.95,4.83,23.77,1027.05,2035.73,2857.81,2919.50,3141.95,349.83,350.85,18.16,0000 0000 0000 0000 000000
2014-10-09 09:41:24,0.02,1.47,0.00,23.22,27.22,29.96,4.79,23.82,1026.93,2035.54,2857.05,2919.01,3141.26,349.78,350.74,18.19,0000 0000 0000 0000 000000
2014-10-09 09:46:25,0.02,1.47,0.00,23.25,27.22,29.94,4.83,23.69,1026.89,2035.60,2856.98,2918.98,3141.01,349.73,350.71,18.22,0000 0000 0000 0000 000000
2014-10-09 09:51:26,0.06,1.47,0.00,23.24,27.22,29.95,4.81,23.66,1026.89,2035.71,2856.43,2918.59,3140.96,350.05,351.00,18.25,0000 0000 0000 0000 000000
2014-10-09 09:56:28,0.05,1.47,0.00,23.25,27.22,29.96,4.81,23.64,1026.90,2035.73,2856.00,2918.03,3140.30,350.22,351.04,18.28,0000 0000 0000 0000 000000
2014-10-09 10:01:29,-0.00,1.47,0.00,23.25,27.22,29.96,4.75,23.67,1026.89,2035.65,2855.67,2918.00,3140.02,349.70,350.47,18.31,0000 0000 0000 0000 000000
2014-10-09 10:06:30,0.05,1.48,0.00,23.25,27.22,29.96,4.80,23.65,1026.87,2035.62,2855.03,2917.73,3139.91,350.04,351.03,18.34,0000 0000 0000 0000 000000
2014-10-09 10:11:31,0.08,1.48,0.00,23.27,27.22,29.96,4.84,23.65,1026.87,2035.71,2854.83,2917.11,3139.29,350.32,351.20,18.36,0000 0000 0000 0000 000000
2014-10-09 10:16:33,-0.01,1.48,0.00,23.26,27.22,29.96,4.82,23.70,1026.87,2035.61,2854.06,2916.99,3139.01,350.24,351.01,18.39,0000 0000 0000 0000 000000
2014-10-09 10:21:34,0.06,1.48,0.00,23.25,27.22,29.96,4.81,23.73,1026.87,2035.68,2853.76,2916.91,3138.84,350.10,350.85,18.42,0000 0000 0000 0000 000000
2014-10-09 10:26:35,0.07,1.48,0.00,23.26,27.22,29.97,4.78,23.67,1026.86,2035.72,2853.07,2916.18,3138.11,349.87,350.68,18.45,0000 0000 0000 0000 000000
2014-10-09 10:31:37,0.01,1.48,0.00,23.21,27.22,29.96,4.80,23.73,1026.82,2035.79,2852.93,2916.01,3138.00,349.66,350.49,18.48,0000 0000 0000 0000 000000
2014-10-09 10:36:38,0.02,1.48,0.00,23.24,27.22,29.96,4.78,23.93,1026.72,2035.62,2852.21,2915.89,3137.64,349.40,350.51,18.51,0000 0000 0000 0000 000000
2014-10-09 10:41:39,0.05,1.48,0.00,23.25,27.22,29.96,4.81,23.68,1026.82,2035.45,2851.96,2915.13,3137.02,349.98,350.86,18.54,0000 0000 0000 0000 000000
2014-10-09 10:46:41,0.06,1.49,0.00,23.25,27.22,29.95,4.79,23.63,1026.83,2035.67,2851.35,2915.01,3137.00,350.32,351.04,18.57,0000 0000 0000 0000 000000
2014-10-09 10:51:41,0.04,1.49,0.00,23.26,27.22,29.95,4.81,23.73,1026.62,2035.83,2851.00,2914.99,3136.69,349.85,350.50,18.60,0000 0000 0000 0000 000000
2014-10-09 10:56:42,0.07,1.49,0.00,23.26,27.22,29.98,4.82,23.60,1026.46,2035.74,2850.45,2914.55,3136.04,350.00,350.77,18.63,0000 0000 0000 0000 000000
2014-10-09 11:01:44,0.01,1.49,0.00,23.23,27.22,29.97,4.79,23.64,1026.43,2035.73,2850.00,2914.03,3135.97,349.57,350.21,18.66,0000 0000 0000 0000 000000
2014-10-09 11:06:45,0.06,1.49,0.00,23.24,27.22,29.95,4.79,23.62,1026.41,2035.78,2849.56,2913.99,3135.37,350.17,351.00,18.69,0000 0000 0000 0000 000000
2014-10-09 11:11:46,0.02,1.49,0.00,23.26,27.22,29.96,4.80,23.70,1026.42,2035.60,2849.01,2913.52,3135.00,349.63,350.45,18.72,0000 0000 0000 0000 000000
2014-10-09 11:16:48,0.03,1.49,0.00,23.25,27.22,29.95,4.78,23.62,1026.39,2035.68,2848.71,2913.03,3134.98,350.45,351.02,18.75,0000 0000 0000 0000 000000
2014-10-09 11:21:49,0.00,1.49,0.00,23.25,27.22,29.96,4.77,23.73,1026.38,2035.44,2848.06,2912.99,3134.45,349.31,349.95,18.77,0000 0000 0000 0000 000000
2014-10-09 11:26:50,0.01,1.49,0.00,23.25,27.22,29.97,4.86,23.67,1026.39,2035.39,2847.98,2912.79,3134.04,350.44,351.17,18.80,0000 0000 0000 0000 000000
2014-10-09 11:31:51,0.10,1.50,0.00,23.24,27.22,29.97,4.85,23.68,1026.39,2035.57,2847.44,2912.15,3134.00,350.67,351.31,18.83,0000 0000 0000 0000 000000
2014-10-09 11:36:52,-0.04,1.50,0.00,23.24,27.22,29.96,4.84,23.85,1026.40,2035.21,2846.89,2912.00,3133.45,350.26,350.89,18.86,0000 0000 0000 0000 000000
2014-10-09 11:41:54,0.04,1.50,0.00,23.26,27.22,29.96,4.85,23.75,1026.39,2035.11,2846.13,2911.82,3133.00,349.95,350.85,18.89,0000 0000 0000 0000 000000
2014-10-09 11:46:55,0.03,1.50,0.00,23.22,27.22,29.96,4.73,23.56,1026.39,2035.11,2846.01,2911.23,3132.99,349.03,349.91,18.92,0000 0000 0000 0000 000000
2014-10-09 11:51:56,0.04,1.50,0.00,23.24,27.22,29.97,4.79,23.57,1026.41,2035.13,2845.72,2911.01,3132.40,349.88,350.62,18.95,0000 0000 0000 0000 000000
2014-10-09 11:56:57,0.03,1.50,0.00,23.25,27.22,29.97,4.79,23.72,1026.39,2035.15,2845.06,2910.95,3132.02,349.63,350.51,18.98,0000 0000 0000 0000 000000
2014-10-09 12:01:58,0.02,1.50,0.00,23.26,27.22,29.97,4.80,23.59,1026.39,2035.11,2844.98,2910.53,3131.99,350.24,351.00,19.01,0000 0000 0000 0000 000000
2014-10-09 12:06:59,0.08,1.50,0.00,23.25,27.22,29.97,4.84,23.73,1026.39,2035.17,2844.32,2910.03,3131.70,349.56,350.29,19.04,0000 0000 0000 0000 000000
2014-10-09 12:12:01,0.04,1.50,0.00,23.27,27.22,29.96,4.87,23.57,1026.39,2035.36,2844.01,2910.00,3131.12,350.30,351.01,19.07,0000 0000 0000 0000 000000
2014-10-09 12:17:01,-0.03,1.51,0.00,23.24,27.22,29.97,4.82,23.59,1026.39,2035.29,2843.89,2909.98,3131.01,350.16,351.06,19.10,0000 0000 0000 0000 000000
2014-10-09 12:22:03,0.08,1.51,0.00,23.27,27.22,29.96,4.84,23.62,1026.39,2035.29,2843.18,2909.51,3130.92,349.96,350.85,19.13,0000 0000 0000 0000 000000
2014-10-09 12:27:04,0.02,1.51,0.00,23.26,27.22,29.96,4.79,23.60,1026.38,2035.20,2842.99,2909.03,3130.15,350.23,350.96,19.15,0000 0000 0000 0000 000000
2014-10-09 12:32:05,0.01,1.51,0.00,23.24,27.22,29.96,4.81,23.77,1026.38,2035.15,2842.66,2908.99,3130.01,349.97,350.62,19.18,0000 0000 0000 0000 000000
2014-10-09 12:37:06,0.06,1.51,0.00,23.25,27.22,29.97,4.78,23.74,1026.38,2035.20,2841.93,2908.69,3129.72,350.17,350.83,19.21,0000 0000 0000 0000 000000
2014-10-09 12:42:08,0.11,1.51,0.00,23.23,27.22,29.97,4.81,23.73,1026.38,2035.40,2841.28,2908.10,3129.06,349.84,350.73,19.24,0000 0000 0000 0000 000000
2014-10-09 12:47:09,0.02,1.51,0.00,23.25,27.22,29.97,4.90,23.73,1026.38,2035.53,2840.99,2908.00,3128.99,350.38,351.10,19.27,0000 0000 0000 0000 000000
2014-10-09 12:52:10,0.05,1.51,0.00,23.24,27.22,29.96,4.74,23.59,1026.38,2035.50,2840.35,2907.97,3128.68,349.16,349.90,19.30,0000 0000 0000 0000 000000
2014-10-09 12:57:11,0.02,1.52,0.00,23.24,27.22,29.97,4.86,23.73,1026.38,2035.46,2840.00,2907.54,3128.04,350.06,350.94,19.33,0000 0000 0000 0000 000000
2014-10-09 13:02:13,0.01,1.52,0.00,23.25,27.22,29.97,4.78,23.68,1026.38,2035.33,2839.69,2907.05,3127.98,349.98,350.69,19.36,0000 0000 0000 0000 000000